[[{"header":{"parameterUnit":"m.s-1","parameterCategory":1,"la1":30.2991,"la2":30.254,"lo1":-89.0895,"lo2":-89.0444,"dy":0.0017,"dx":0.0017,"nx":28,"ny":28,"refTime":"2024-05-27T03:00:00:Z","depth":0,"parameterNumber":2,"parameterNumberName":"U-component_of_WINDS"},"data":[0,0,0,0,0,0,0,0,0,0,0,0,0,0,0,0,0,0,0,0,0,0,0,0,0,0,0,0,0,0,0,0,0,0,0,0,0,0,0,0,0,0,0,0,0,0,0,0,0,0,0,0,0,0,0,0,0,0,1.1411,1.1411,0,1.146,1.146,1.1461,1.1424,1.1422,1.1421,1.1419,1.1472,1.1475,1.1478,0,0,0,0,0,0,0,0,0,0,0,0,0,1.1289,1.1291,1.1411,1.1411,1.1412,1.1459,1.146,1.1461,1.1424,1.1422,1.142,1.1419,1.1471,1.1475,1.1478,0,0,0,0,0,0,0,0,0,0,0,0,0,1.134,1.1292,1.141,1.1399,1.1399,1.1459,1.146,1.1461,1.1425,1.1422,1.142,1.1418,1.147,1.1474,1.1479,1.1554,0,0,1.1492,1.1494,0,0,0,0,0,0,0,0,1.1337,1.1345,1.14,1.14,1.14,1.1433,1.1436,1.1492,1.1425,1.1415,1.1419,1.1416,1.1461,1.1466,1.1481,1.1556,1.1558,1.1492,1.1495,1.1497,1.1498,0,0,0,0,0,0,0,1.1334,1.1342,1.143,1.1401,1.1401,1.1393,1.1397,1.1447,1.1451,1.1416,1.1413,1.1419,1.1461,1.1477,1.1482,1.1559,1.1492,1.1496,1.1499,1.15,1.17,1.1703,0,0,0,0,0,0,1.1331,1.134,1.1428,1.1431,1.1362,1.1397,1.1402,1.1425,1.145,1.1452,1.1421,1.1417,1.147,1.1477,1.1483,1.1574,1.1497,1.1501,1.1503,1.1698,1.1701,1.1704,0,0,0,0,0,0,1.1328,1.1339,1.1426,1.1385,1.1395,1.1402,1.1427,1.1427,1.1443,1.1455,1.1456,1.1437,1.1469,1.1477,1.1537,1.1575,1.1503,1.1507,1.1694,1.1699,1.1702,1.1755,0,0,0,0,0,0,1.1325,1.1338,1.1366,1.1386,1.1398,1.1478,1.143,1.143,1.145,1.1446,1.1469,1.1471,1.1467,1.153,1.1541,1.158,1.151,1.1691,1.1696,1.1701,1.175,1.176,1.1769,0,0,0,0,0,1.1321,1.1379,1.1368,1.1379,1.1432,1.148,1.1487,1.1481,1.1454,1.1482,1.149,1.147,1.1569,1.1537,1.1548,1.1589,1.1688,1.1695,1.1701,1.1745,1.1758,1.1769,0,0,0,0,0,0,1.1364,1.1381,1.1369,1.1435,1.1457,1.1474,1.1509,1.1495,1.1525,1.1519,1.1512,1.1517,1.158,1.159,1.1554,1.1664,1.1625,1.1633,1.1655,1.1667,1.1677,1.1673,1.1514,0,0,0,0,0,1.1382,1.1418,1.1431,1.1489,1.15,1.1503,1.1524,1.1518,1.154,1.1549,1.156,1.1583,1.162,1.1644,1.1678,1.1751,1.1757,1.1785,1.1795,1.1803,1.1811,1.1851,1.1865,1.1724,1.1724,1.1723,0,0,1.1418,1.1432,1.1455,1.1498,1.1514,1.1553,1.1511,1.1554,1.1583,1.1555,1.1612,1.1622,1.1647,1.1714,1.1744,1.1725,1.1851,1.1811,1.1817,1.182,1.1859,1.1872,1.1884,1.1728,1.1727,1.1726,0,0,1.1504,1.1518,1.1567,1.1584,1.1608,1.161,1.1622,1.1642,1.1648,1.1704,1.1685,1.172,1.1782,1.1801,1.1819,1.1914,1.1898,1.1926,1.1977,1.2017,1.2028,1.2038,1.2072,1.2085,1.1933,1.1933,1.1934,0,1.1546,1.1603,1.1595,1.164,1.166,1.1636,1.1687,1.1704,1.1739,1.1754,1.1731,1.181,1.1825,1.1897,1.192,1.1935,1.195,1.1923,1.2027,1.2036,1.2045,1.2079,1.2092,1.1937,1.1936,1.1936,1.1936,0,1.1654,1.1695,1.1732,1.1765,1.179,1.1837,1.1838,1.1864,1.1856,1.186,1.1919,1.1937,1.1975,1.1991,1.1984,1.2062,1.205,1.2027,1.1988,1.2062,1.2093,1.2106,1.1941,1.194,1.1939,1.1938,0,0,1.1768,1.1798,1.1812,1.1827,1.1853,1.1884,1.1932,1.1968,1.1991,1.2016,1.2056,1.211,1.209,1.211,1.2105,1.214,1.2215,1.2113,1.2114,1.2132,1.2304,1.2321,1.2336,1.2205,1.2207,1.2209,1.2302,0,1.1856,1.1938,1.1933,1.201,1.2048,1.2026,1.2068,1.2089,1.2095,1.2129,1.2136,1.2174,1.2144,1.2156,1.219,1.2199,1.225,1.2192,1.2243,1.2245,1.2238,1.2352,1.237,1.2457,1.2314,1.2316,1.2318,0,1.1969,1.1998,1.2079,1.21,1.2116,1.2153,1.2186,1.2218,1.2243,1.2245,1.2268,1.2258,1.2307,1.2266,1.2335,1.2295,1.2316,1.2324,1.2327,1.2332,1.2286,1.236,1.2485,1.2498,1.2337,1.2335,1.2334,0,1.2045,1.2104,1.216,1.2174,1.22,1.2227,1.2239,1.2261,1.2283,1.2313,1.2328,1.2363,1.2383,1.2411,1.2411,1.2381,1.2481,1.244,1.2485,1.2485,1.2507,1.2506,1.2637,1.252,1.252,1.252,1.2519,0,1.2144,1.2195,1.2195,1.223,1.2286,1.2281,1.2337,1.2347,1.2366,1.2403,1.2387,1.2423,1.242,1.2456,1.2457,1.2514,1.2523,1.2527,1.2527,1.2529,1.2528,1.2542,1.2536,1.2523,1.2522,1.2522,1.2521,0,1.2238,1.2241,1.2301,1.232,1.2327,1.2368,1.2385,1.2419,1.2424,1.2471,1.2482,1.249,1.2532,1.2534,1.2583,1.2583,1.2653,1.2646,1.2645,1.2644,1.2689,1.2685,1.2834,1.2854,1.2724,1.2725,1.2726,0,1.2301,1.234,1.2364,1.2387,1.2401,1.2439,1.2462,1.2458,1.2483,1.2514,1.2544,1.2585,1.2617,1.2685,1.2696,1.2733,1.2727,1.2777,1.2733,1.2734,1.2729,1.2727,1.2731,1.2786,1.2787,1.2788,1.2789,0,1.2413,1.2412,1.2446,1.248,1.2508,1.2535,1.256,1.2581,1.2581,1.261,1.2652,1.2677,1.2727,1.2767,1.2804,1.2818,1.2804,1.2803,1.2816,1.2818,1.2816,1.2819,1.2669,1.28,1.2799,1.2798,1.2797,1.2797,1.2494,1.2527,1.255,1.2588,1.2607,1.2631,1.2664,1.2673,1.2708,1.2748,1.2744,1.2791,1.2816,1.2864,1.2881,1.2918,1.2902,1.292,1.2924,1.2929,1.2934,1.281,1.2925,1.2925,1.2925,1.2924,1.2924,0,1.2605,1.2619,1.2654,1.269,1.272,1.2704,1.2732,1.2758,1.28,1.2824,1.2856,1.2905,1.2945,1.296,1.2999,1.3026,1.3021,1.3037,1.3035,1.3038,1.2946,1.2932,1.304,1.304,1.304,1.304,1.304,1.304,1.2667,1.2723,1.2725,1.2791,1.2805,1.2851,1.2868,1.2891,1.291,1.2965,1.2998,1.3007,1.3028,1.3068,1.3105,1.3108,1.3123,1.3142,1.3143,1.3056,1.3045,1.3034,1.302,1.3145,1.3145,1.3232,1.3232,1.3233]},{"header":{"parameterUnit":"m.s-1","parameterCategory":1,"la1":30.2991,"la2":30.254,"lo1":-89.0895,"lo2":-89.0444,"dy":0.0017,"dx":0.0017,"nx":28,"ny":28,"refTime":"2024-05-27T03:00:00:Z","depth":0,"parameterNumber":3,"parameterNumberName":"V-component_of_WINDS"},"data":[0,0,0,0,0,0,0,0,0,0,0,0,0,0,0,0,0,0,0,0,0,0,0,0,0,0,0,0,0,0,0,0,0,0,0,0,0,0,0,0,0,0,0,0,0,0,0,0,0,0,0,0,0,0,0,0,0,0,0.2941,0.2941,0,0.2938,0.2938,0.2938,0.2927,0.2927,0.2927,0.2927,0.2924,0.2924,0.2924,0,0,0,0,0,0,0,0,0,0,0,0,0,0.2937,0.2938,0.2941,0.2941,0.2941,0.2938,0.2938,0.2938,0.2927,0.2927,0.2927,0.2926,0.2924,0.2924,0.2924,0,0,0,0,0,0,0,0,0,0,0,0,0,0.2937,0.2938,0.2941,0.2935,0.2935,0.2938,0.2938,0.2938,0.2927,0.2927,0.2927,0.2926,0.2923,0.2924,0.2924,0.2933,0,0,0.2925,0.2925,0,0,0,0,0,0,0,0,0.2937,0.2937,0.2936,0.2936,0.2935,0.2933,0.2936,0.2936,0.2927,0.293,0.2927,0.2926,0.2927,0.2927,0.2927,0.2932,0.2932,0.2925,0.2925,0.2925,0.2925,0,0,0,0,0,0,0,0.2937,0.2937,0.294,0.2936,0.2936,0.2933,0.2932,0.2936,0.2931,0.293,0.2929,0.2929,0.2927,0.2927,0.2927,0.2932,0.2925,0.2925,0.2925,0.2925,0.2944,0.2945,0,0,0,0,0,0,0.2938,0.2938,0.294,0.294,0.2935,0.2933,0.2933,0.2934,0.2931,0.293,0.2929,0.2928,0.2927,0.2927,0.2927,0.2937,0.2925,0.2925,0.2925,0.2944,0.2944,0.2945,0,0,0,0,0,0,0.2938,0.2938,0.294,0.2939,0.2939,0.2934,0.2935,0.2934,0.2934,0.293,0.2929,0.2931,0.2926,0.2926,0.2931,0.2936,0.2925,0.2925,0.2943,0.2944,0.2945,0.2957,0,0,0,0,0,0,0.2938,0.2939,0.2942,0.2939,0.2939,0.2945,0.2935,0.2934,0.2935,0.2934,0.2931,0.293,0.2926,0.2931,0.2931,0.2937,0.2926,0.2943,0.2944,0.2944,0.2956,0.2957,0.2959,0,0,0,0,0,0.2938,0.2946,0.2942,0.2943,0.2943,0.2945,0.2945,0.294,0.2935,0.2939,0.2936,0.293,0.2936,0.2931,0.2932,0.2937,0.2943,0.2944,0.2944,0.2955,0.2957,0.2959,0,0,0,0,0,0,0.295,0.2945,0.2941,0.2948,0.2947,0.2943,0.2947,0.2943,0.2943,0.2942,0.2936,0.2935,0.2941,0.2939,0.2935,0.2945,0.2938,0.2939,0.2946,0.2948,0.295,0.295,0.2926,0,0,0,0,0,0.2953,0.2955,0.2951,0.2957,0.2957,0.2952,0.2953,0.2949,0.2948,0.2948,0.2945,0.2944,0.2946,0.2947,0.2948,0.2955,0.2954,0.2959,0.2961,0.2962,0.2963,0.2967,0.2969,0.2948,0.2948,0.2948,0,0,0.296,0.2958,0.296,0.296,0.2959,0.2961,0.2952,0.2955,0.2957,0.2948,0.2953,0.2951,0.2949,0.2955,0.2958,0.2954,0.2969,0.2963,0.2964,0.2965,0.2968,0.297,0.2972,0.2948,0.2948,0.2948,0,0,0.2974,0.2973,0.2978,0.2977,0.2975,0.2971,0.2973,0.2969,0.2968,0.2972,0.2965,0.2967,0.297,0.2969,0.2969,0.2982,0.2977,0.2982,0.2991,0.2995,0.2997,0.2998,0.3003,0.3004,0.2983,0.2983,0.2983,0,0.2983,0.2987,0.2981,0.2984,0.2984,0.2976,0.2981,0.2981,0.2979,0.2979,0.2975,0.2978,0.2977,0.2982,0.2985,0.2986,0.2987,0.2983,0.2997,0.2998,0.2999,0.3004,0.3006,0.2984,0.2984,0.2984,0.2984,0,0.2998,0.3,0.3005,0.3003,0.3004,0.3008,0.3003,0.3004,0.3,0.2997,0.3001,0.2999,0.2999,0.3,0.2996,0.3005,0.3003,0.2998,0.2991,0.3002,0.3006,0.3008,0.2985,0.2985,0.2985,0.2984,0,0,0.302,0.3015,0.3017,0.3016,0.3013,0.3015,0.3018,0.3019,0.302,0.3019,0.3022,0.3024,0.3019,0.3019,0.3015,0.3018,0.3028,0.3012,0.3012,0.3016,0.3038,0.3042,0.3044,0.3025,0.3025,0.3025,0.3038,0,0.3033,0.3039,0.3034,0.3041,0.3043,0.3035,0.3038,0.3037,0.3034,0.3035,0.3032,0.3034,0.3027,0.3027,0.303,0.3027,0.3033,0.3026,0.3028,0.3028,0.3029,0.3046,0.305,0.3062,0.304,0.304,0.304,0,0.305,0.305,0.3057,0.3053,0.3054,0.3057,0.3057,0.3058,0.3056,0.3054,0.3053,0.3048,0.3051,0.3044,0.3048,0.3043,0.3044,0.3042,0.3042,0.3043,0.3035,0.3047,0.3066,0.3068,0.3042,0.3042,0.3042,0,0.3065,0.3067,0.3071,0.3071,0.3067,0.3069,0.3067,0.3065,0.3065,0.3065,0.3065,0.3065,0.3065,0.3065,0.306,0.3055,0.3065,0.3057,0.3063,0.3063,0.3065,0.3065,0.3085,0.3065,0.3065,0.3065,0.3065,0,0.3081,0.3086,0.3078,0.3081,0.3086,0.3079,0.3085,0.3082,0.308,0.3082,0.3075,0.3077,0.307,0.3071,0.3067,0.3071,0.3071,0.307,0.3068,0.307,0.3071,0.3071,0.307,0.3066,0.3066,0.3066,0.3065,0,0.31,0.3095,0.3099,0.3094,0.3093,0.3097,0.3093,0.3096,0.3092,0.3095,0.3095,0.3089,0.309,0.3085,0.3085,0.3083,0.3089,0.3086,0.309,0.3089,0.3095,0.3095,0.3116,0.3118,0.3097,0.3097,0.3097,0,0.311,0.3114,0.3109,0.311,0.3109,0.311,0.311,0.3104,0.3105,0.3102,0.3105,0.3105,0.3105,0.3107,0.3103,0.3103,0.3101,0.3108,0.3101,0.3102,0.3101,0.3101,0.3101,0.311,0.311,0.311,0.3111,0,0.3129,0.3127,0.3127,0.3127,0.3127,0.3127,0.3125,0.3127,0.312,0.312,0.3121,0.3121,0.3121,0.3122,0.3121,0.3119,0.3114,0.3113,0.3114,0.3116,0.3118,0.3117,0.3094,0.3113,0.3112,0.3112,0.3112,0.3112,0.3144,0.3147,0.3144,0.3145,0.3143,0.3142,0.3144,0.3141,0.3141,0.3141,0.3137,0.3139,0.3136,0.3134,0.3133,0.3134,0.3131,0.3133,0.3133,0.3134,0.3135,0.3118,0.3134,0.3134,0.3134,0.3134,0.3134,0,0.3163,0.3161,0.3162,0.316,0.3161,0.3155,0.3154,0.3155,0.3156,0.3154,0.3154,0.3155,0.3155,0.3151,0.3151,0.3153,0.315,0.3153,0.3153,0.3152,0.3138,0.3137,0.3155,0.3155,0.3155,0.3155,0.3155,0.3155,0.3173,0.3177,0.3174,0.3177,0.3175,0.3176,0.3176,0.3175,0.3173,0.3175,0.3175,0.3172,0.3169,0.3168,0.3168,0.3167,0.3167,0.3171,0.3169,0.3156,0.3154,0.3152,0.3151,0.3171,0.3171,0.3183,0.3183,0.3184]}]]